www.pogodaiklimat.ru

Погода и климат >> Архив погоды >> Россия >> Крым >> Симферополь


АРХИВ ПОГОДЫ в Симферополе

Время (UTC), дата Ветер
(напр.,м/с)
 
Видим.   Явления Облачность Т
(С)
Тd
(С)
f
(%)
Тe
(С)
Тes
(С)
Комфортность P
(гПа)
Po
(гПа)
Тmin
(С)
Tmax
(С)
R
(мм)
R24
(мм)
S
(см)
03 15.10 ЮЗ 2 10 км 8/0
[Ac trans]
+7.0 +4.7 85 +5 +5 прохладно 1022.5 1000.3 +6.6 0.0
06 15.10 Ю 4 10 км 10/6 1320 м
[Sc Ac und]
+10.1 +5.7 74 +8 +8 по сезону 1022.6 1000.6 +5.3 0.0
09 15.10 ЮЗ 6 10 км 10/10 600 м
[Sc]
+13.0 +8.3 73 +11 +11 по сезону 1022.0 1000.3
12 15.10 ЮЗ 5
{10}
6000 м в посл. час морось 10/10 120 м
[St]
+13.7 +13.4 98 +12 +12 прохладно 1020.5 998.9
15 15.10 З 6 1800 м в посл. час дождь 10/10 120 м
[St]
+14.2 +13.9 98 +12 +12 по сезону 1019.6 998.0 0.5
18 15.10 З 5 6000 м в посл. час морось {дождь} 10/10 360 м
[St]
+14.9 +14.1 95 +13 +13 тепло 1019.1 997.6 +15.0 0.5
21 15.10 З 5
{10}
10 км в посл. час ливневой дождь 10/10 1350 м
[Cb calv]
+15.6 +14.8 95 +14 +14 тепло 1018.2 996.8
00 16.10 СЗ 7
{10}
10 км в посл. час ливневой дождь 10/6 870 м
[Cb calv Ac und]
+15.0 +13.0 88 +13 +13 тепло 1018.5 997.0
03 16.10 СЗ 3
{11}
10 км 1/0
[Ac lent]
+9.7 +8.5 92 +7 +7 по сезону 1021.2 999.2 +9.6 0.1
06 16.10 С 5 10 км 5/1 300 м
[St Cc]
+10.8 +8.4 85 +8 +9 по сезону 1023.0 1001.1 +8.2 0.1
09 16.10 СЗ 6
{11}
10 км 4/1 600 м
[Sc Cc]
+14.8 +5.0 52 +13 +15 по сезону 1023.8 1002.1
12 16.10 СЗ 7
{12}
10 км 10/1 1500 м
[Sc Ci fib]
+16.6 +3.3 41 +15 +16 по сезону 1023.9 1002.4
15 16.10 З 4
{11}
10 км 10/0
[Ac lent Ci fib]
+13.4 +6.7 64 +12 +12 по сезону 1025.2 1003.4
18 16.10 ЮЗ 3 10 км 3/0
[Ac trans]
+10.0 +7.6 85 +8 +8 по сезону 1026.5 1004.4 +16.9
21 16.10 Ю 4 10 км ясно +8.5 +7.4 93 +5 +5 по сезону 1026.4 1004.2
00 17.10 Ю 5 10 км ясно +9.6 +8.4 92 +6 +6 по сезону 1026.2 1004.1
03 17.10 Ю 5 10 км 3/3 300 м
[St]
+10.0 +9.2 95 +7 +7 по сезону 1025.4 1003.4 +8.0
06 17.10 ЮЗ 5 10 км 3/3 300 м
[St]
+14.0 +12.4 90 +12 +13 тепло 1025.3 1003.6 +8.0
09 17.10 ЮЗ 9-11
{11}
10 км 8/8 480 м
[St]
+18.9 +13.7 72 +19 +19 тепло 1024.3 1003.0
12 17.10 ЮЗ 9-12
{13}
10 км 8/8 480 м
[St]
+17.7 +13.6 77 +17 +17 тепло 1023.6 1002.2
15 17.10 ЮЗ 5
{12}
10 км 3/3 450 м
[St]
+15.3 +13.5 89 +14 +14 тепло 1023.2 1001.6
18 17.10 ЮЗ 3 10 км ясно +13.1 +12.5 96 +12 +12 тепло 1023.7 1002.0 +19.7
21 17.10 Ю 4 10 км ясно +11.2 +10.4 95 +9 +9 по сезону 1023.7 1001.8
00 18.10 ЮВ 2 10 км 3/3 240 м
[St]
+10.8 +9.6 92 +9 +9 тепло 1023.7 1001.8
03 18.10 ЮВ 3 10 км 6/6 120 м
[St]
+10.3 +9.2 93 +8 +8 по сезону 1023.2 1001.2 +9.3
06 18.10 СВ 4 600 м туман ?/? +12.0 +11.2 95 +10 +10 по сезону 1024.0 1002.2 +9.0
09 18.10 С 2 10 км {туман} ясно +18.2 +13.3 73 +19 +25 тепло 1022.9 1001.6
12 18.10 З 4 10 км {туман} ясно +20.6 +12.6 60 +23 +26 комфорт 1021.5 1000.4
15 18.10 ЮЗ 3 10 км ясно +15.7 +12.6 82 +15 +15 тепло 1021.6 1000.1
18 18.10 Ю 2 100 м туман ?/? +13.8 +13.6 99 +13 +13 тепло 1021.8 1000.2 +20.9
21 18.10 штиль 0 100 м туман ?/? +12.5 +12.5 100 +12 +12 тепло 1021.4 999.7
00 19.10 Ю 1 100 м туман ?/? +12.1 +12.1 100 +12 +12 тепло 1021.2 999.4
03 19.10 В 1 100 м туман ?/? +11.4 +11.4 100 +11 +11 тепло 1020.9 999.1 +11.1 0.5
06 19.10 Ю 2 3900 м дымка {туман} 10/10 240 м
[St]
+13.0 +13.0 100 +12 +12 тепло 1021.0 999.3 +10.2 0.5
09 19.10 З 2 10 км 6/6 420 м
[St]
+16.8 +13.3 80 +17 +20 тепло 1020.5 999.1
12 19.10 З 3 10 км ясно +19.1 +12.8 67 +20 +24 тепло 1019.4 998.2
15 19.10 З 3 10 км ясно +14.7 +13.1 90 +14 +14 тепло 1019.3 997.8
18 19.10 ЮЗ 2 3100 м дымка 10/10 120 м
[St]
+13.3 +13.0 98 +12 +12 тепло 1019.4 997.8 +19.7
21 19.10 Ю 1 4800 м дымка 10/10 150 м
[St]
+13.8 +13.3 97 +14 +14 тепло 1019.2 997.6
00 20.10 Ю 2 400 м туман ?/? +12.7 +12.7 100 +12 +12 тепло 1019.1 997.4
03 20.10 В 2 2700 м дымка {туман} 10/10 120 м
[St]
+12.1 +11.8 98 +11 +11 тепло 1018.7 997.0 +12.0
06 20.10 З 1 6000 м дымка {туман} 10/10 180 м
[St]
+12.7 +11.6 93 +13 +13 тепло 1019.3 997.6 +11.8
09 20.10 Ю 2 10 км 10/10 270 м
[St]
+13.6 +11.7 88 +13 +13 тепло 1019.5 997.9
12 20.10 ЮЗ 3 10 км 10/0
[Ci fib]
+17.9 +11.7 67 +18 +21 тепло 1018.2 996.9
15 20.10 СЗ 2 10 км 10/3 420 м
[St Ci fib]
+13.9 +11.9 88 +13 +13 тепло 1018.9 997.3
18 20.10 штиль 0 10 км 8/0
[Ci fib]
+12.1 +11.5 96 +11 +11 тепло 1019.1 997.4 +18.3
21 20.10 В 2 5000 м дымка 10/10 400 м
[St]
+12.6 +11.8 95 +12 +12 тепло 1018.8 997.1
00 21.10 В 1 6000 м дымка 10/10 450 м
[St]
+12.7 +11.4 92 +13 +13 тепло 1018.6 996.9
03 21.10 ЮВ 2 6000 м дымка 10/10 630 м
[Sc]
+12.0 +11.1 94 +11 +11 тепло 1017.9 996.2 +11.4
06 21.10 ЮВ 1 6000 м дымка 10/10 660 м
[Sc]
+12.3 +10.5 89 +12 +12 тепло 1018.3 996.6 +11.1
09 21.10 СВ 2 10 км 8/8 800 м
[Sc]
+15.5 +9.4 67 +15 +17 тепло 1017.3 995.9
12 21.10 З 2 10 км 8/8 1140 м
[Sc]
+16.6 +9.1 61 +17 +18 тепло 1015.8 994.5
15 21.10 СЗ 2 10 км 6/6 1140 м
[Sc]
+13.6 +9.8 78 +13 +13 тепло 1015.6 994.1
18 21.10 ЮВ 1 6000 м дымка 3/3 1000 м
[Sc]
+11.3 +9.0 86 +11 +11 тепло 1015.2 993.5 +17.4
21 21.10 ЮВ 2 4400 м дымка 6/6 960 м
[Sc]
+9.9 +8.3 90 +8 +8 по сезону 1014.6 992.8
00 22.10 Ю 2 10 км 10/10 930 м
[Sc]
+11.6 +9.7 88 +10 +10 тепло 1012.9 991.3

 

Местоположение метеостанции Симферополь (Крым, Россия): широта 45.03 долгота 33.97 высота над уровнем моря 181 м.

В архиве по умолчанию представлена погода в Симферополе за последнюю неделю. Архивные данные за месяц целиком и за предыдущие месяцы, начиная с января 2011 года, Вы можете получить, выбрав интересующий диапазон дат из раскрывающегося списка и нажав кнопку "Ввод!".

Внимание! Время в таблицах - всемирное. Для получения местного времени необходимо прибавить поправку, которая в Симферополе равна 3 ч.

Смотрите также архив погоды в соседних городах и на ближайших метеорологических станциях:

Погода в Белогорске (Крым, Россия) (50 км)
Погода в Евпатории (Крым, Россия) (50 км)
Погода в Алуште (Крым, Россия) (52 км)
Погода в Севастополе (город Севастополь, Россия) (57 км)
Погода в Клепинино (Крым, Россия) (58 км)
Погода в Никитском саду (Крым, Россия) (61 км)
Погода в Ай-Петри (Крым, Россия) (63 км)
Погода в Ялте (Крым, Россия) (63 км)
Погода в Херсонесском Маяке (город Севастополь, Россия) (68 км)
Погода в Стрелковом (Херсонская область, Украина) (74 км)

Пояснения к столбцам:

Ветер - указаны скорость ветра в м/с - средняя за 10 мин, порывы в срок и между сроками (в фигурных скобках) и направление, откуда дует ветер: С - северный, СВ - северо-восточный, В - восточный, ЮВ - юго-восточный, Ю - южный, ЮЗ - юго-западный, З - западный, СЗ - северо-западный.
Видимость - горизонтальная дальность видимости в метрах или километрах. При видимости от 1 до 10 км при отсутствии осадков обычно наблюдается дымка, при ухудшении видимости до 1 км и менее - туман. В сухую погоду видимость может ухудшаться дымом, пылью или мглою.
Явления - указаны атмосферные явления, наблюдавшиеся в срок или в последний час перед сроком; фигурными скобками обозначены явления, наблюдавшиеся между сроками (за 1-3 часа до срока); квадратными скобками обозначены град или гололедные отложения с указанием их диаметра в мм.
Облачность - указаны через наклонную черту общая и нижняя облачность в баллах и высота нижней границы облаков в метрах; квадратными скобками обозначены формы облаков: Ci - перистые, Cs - перисто-слоистые, Cc - перисто-кучевые, Ac - высококучевые, As - высокослоистые, Sc - слоисто-кучевые, Ns - слоисто-дождевые, Cu - кучевые, Cb - кучево-дождевые. Подробнее классификацию облаков см. в Атласе облаков (PDF).
T - Температура воздуха - температура, измеренная на высоте 2 м над землей.
Td - Температура точки росы - температура, при понижении до которой содержащийся в воздухе водяной пар достигнет насыщения.
f - Относительная влажность воздуха - влажноcть воздуха, измеренная на высоте 2 м над землей.
Te - Эффективная температура - температура, которую ощущает одетый по сезону человек в тени. Характеристика душности погоды. При расчете учитывается влияние влажности воздуха и скорости ветра на теплоощущения человека.
Tes - Эффективная температура на солнце - температура, которую ощущает человек, с поправкой на солнечный нагрев. Характеристика знойности погоды. Зависит от высоты солнца над горизонтом, облачности и скорости ветра. Ночью, в пасмурную погоду, а также при ветре 12 м/с и более поправка равна нулю.
P - Атмосферное давление - приведенное к уровню моря атмосферное давление.
Po - Атмосферное давление - измеренное на уровне метеостанции атмосферное давление.
Tmin - Минимальная температура - минимум температуры воздуха на высоте 2 м над землей.
Tmax - Максимальная температура - максимум температуры воздуха на высоте 2 м над землей.
R - Количество осадков - Количество выпавших осадков за период времени, мм. При наведении курсора мыши на число - период времени, за который выпало указанное количество осадков.
R24 - Количество осадков - Количество выпавших осадков за 24 часа, мм.
S - Снежный покров - Высота снежного покрова, см. При наведении курсора мыши на число - состояние снежного покрова и степень покрытия местности в баллах.